www.pogodaiklimat.ru

Погода и климат >> Архив погоды >> Россия >> Чукотка >> Эгвекинот


АРХИВ ПОГОДЫ в Эгвекиноте

Время (UTC), дата Ветер
(напр.,м/с)
 
Видим.   Явления Облачность Т
(С)
Тd
(С)
f
(%)
Тe
(С)
Тes
(С)
Комфортность P
(гПа)
Po
(гПа)
Тmin
(С)
Tmax
(С)
R
(мм)
R24
(мм)
S
(см)
09 12.07 штиль 0
{8}
20 км ясно +18.4 +9.2 55 +19 +19 1008.0 1005.4
12 12.07 штиль 0
{2}
20 км 4/0
[Ac trans]
+14.2 +9.4 73 +14 +14 1007.9 1005.2
15 12.07 штиль 0
{3}
20 км 8/3 1500 м
[Sc Ac trans Ci fib]
+13.7 +12.0 89 +13 +13 1008.0 1005.3
18 12.07 ЮВ 2
{4}
4000 м дымка 10/10 180 м
[Sc]
+12.9 +11.7 92 +12 +12 1007.7 1005.0 +12.9
21 12.07 З 2
{6}
10 км слаб. ливневой дождь 10/8 300 м
[Cb cap Ac trans Ci sp]
+15.2 +13.0 87 +15 +16 1006.4 1003.7 +12.6
00 13.07 ЮВ 3
{4}
20 км {ливн. осадки} 8/4 1000 м
[Cb cap Ac trans Ci fib]
+16.0 +12.3 79 +16 +19 1005.2 1002.5
03 13.07 Ю 5
{6}
20 км 8/3 1000 м
[Cb cap Ac trans Ci sp]
+18.3 +12.5 69 +18 +20 1003.9 1001.3
06 13.07 штиль 0
{7}
20 км 10/4 1000 м
[Cb cap Ac trans Ci sp]
+17.7 +11.5 67 +18 +19 1002.7 1000.1 +18.5 0.1
09 13.07 С 6
{13}
20 км {гроза} 10/4 1000 м
[Cb cap Ac trans Ci sp]
+22.5 +9.9 45 +24 +24 комфорт 1002.5 999.9
12 13.07 С 2
{9}
20 км {гроза, ливн. осадки} 9/3 1000 м
[Cb cap Ci sp]
+16.1 +12.8 81 +16 +16 1002.7 1000.0
15 13.07 С 2
{4}
20 км 8/0
[Ac trans Ci sp]
+16.3 +11.7 74 +16 +17 1002.7 1000.0
18 13.07 Ю 1
{3}
20 км 3/0
[Ci sp]
+18.0 +12.0 68 +19 +22 1003.0 1000.4 +14.7 0.4
21 13.07 В 1
{5}
20 км 5/0
[Ac trans Ci sp]
+22.3 +12.0 52 +25 +32 комфорт 1003.3 1000.7 +14.7
00 14.07 ЮВ 6
{9}
20 км 8/0
[Ac trans Ci fib]
+21.8 +12.1 54 +24 +27 комфорт 1002.9 1000.3
03 14.07 ЮВ 3
{10}
20 км 8/4 1000 м
[Cb cap Ci fib]
+23.0 +11.0 47 +25 +29 комфорт 1003.4 1000.8
06 14.07 Ю 7
{13}
20 км 9/3 1000 м
[Cb cap Ci sp]
+18.0 +12.9 72 +17 +18 1004.3 1001.7 +24.1
09 14.07 штиль 0
{10}
20 км 4/3
[Cu hum Ci fib]
+15.5 +12.0 80 +15 +15 1006.2 1003.5
12 14.07 Ю 3
{7}
500 м туман ?/? +13.2 +12.4 95 +12 +12 1007.6 1004.9
15 14.07 Ю 3
{4}
200 м туман ?/? +13.4 +13.4 100 +12 +12 1007.9 1005.2
18 14.07 ЮВ 5
{8}
200 м туман ?/? +13.1 +13.1 100 +11 +11 1008.0 1005.3 +13.1
21 14.07 Ю 6
{8}
2000 м морось {туман} 10/10 200 м
[St]
+13.6 +12.8 95 +11 +11 1008.0 1005.3 +13.1
00 15.07 ЮВ 7
{10}
10 км {морось, туман} 10/10 240 м
[St]
+13.3 +11.7 90 +11 +11 1008.2 1005.5
03 15.07 Ю 6
{9}
10 км 10/10 330 м
[St]
+13.2 +11.1 87 +11 +11 1007.4 1004.7
06 15.07 Ю 7
{9}
10 км в посл. час ливневой дождь 10/10 360 м
[Cb cap]
+12.8 +10.6 86 +10 +10 1006.6 1003.9 +13.8 0.4
09 15.07 Ю 6
{9}
10 км 10/10 330 м
[Cb cap]
+12.4 +10.5 88 +10 +10 1006.6 1003.9
12 15.07 Ю 5
{8}
4000 м дымка 10/10 210 м
[St]
+11.6 +10.4 92 +9 +9 1006.3 1003.6
15 15.07 Ю 5
{8}
4000 м слаб. морось 10/10 200 м
[St]
+10.9 +10.1 95 +8 +8 1005.9 1003.1
18 15.07 Ю 4
{6}
4000 м дымка 10/10 270 м
[Cb cap]
+11.1 +10.2 94 +9 +9 1005.0 1002.3 +10.8 0.1
21 15.07 штиль 0
{5}
50 км дымка ?/? +12.0 +10.6 91 +11 +11 1004.9 1002.2 +10.8
00 16.07 Ю 4
{6}
4000 м дымка 10/10 150 м
[St]
+12.4 +10.7 89 +10 +10 1004.5 1001.8
03 16.07 Ю 5
{6}
4000 м 10/10 420 м
[Cb cap]
+12.0 +10.6 91 +9 +9 1003.6 1000.9
06 16.07 Ю 5
{7}
4000 м в посл. час ливневой дождь 10/10 300 м
[Cb cap]
+12.0 +10.6 91 +9 +9 1003.1 1000.4 +13.4 0.2
09 16.07 Ю 4
{5}
4000 м 10/10 300 м
[Cb cap]
+12.2 +10.6 90 +10 +10 1002.9 1000.2
12 16.07 Ю 5
{6}
4000 м ливневой дождь 10/10 300 м
[Cb cap]
+11.4 +10.5 94 +9 +9 1003.1 1000.4
15 16.07 ЮВ 4
{8}
4000 м ливневой дождь 10/10 300 м
[Cb cap]
+11.3 +10.3 94 +9 +9 1002.5 1099.8
18 16.07 ЮВ 1
{5}
4000 м ливневой дождь 10/10 300 м
[Cb cap]
+11.2 +10.3 94 +11 +11 1002.9 1000.2 +11.2 8
21 16.07 штиль 0
{5}
10 км {ливн. осадки} 10/10 660 м
[Cb cap]
+12.8 +10.2 84 +12 +12 1003.3 1000.6 +11.2
00 17.07 Ю 4
{5}
10 км {ливн. осадки} 10/10 1050 м
[Cb cap]
+14.3 +10.3 77 +13 +13 1003.8 1001.1
03 17.07 Ю 1
{6}
10 км 10/10 1500 м
[Cb cap]
+15.1 +9.7 70 +16 +16 1004.2 1001.5
06 17.07 Ю 5
{7}
20 км 8/4 1000 м
[Cu hum Ci fib]
+14.4 +10.0 75 +13 +13 1004.4 1001.7 +15.7
09 17.07 В 2
{7}
10 км 10/8 1000 м
[Cb cap Ac trans]
+13.6 +9.6 77 +13 +13 1005.3 1002.6
12 17.07 штиль 0
{3}
10 км 10/10 1500 м
[Cb cap]
+12.2 +10.4 89 +12 +12 1005.9 1003.2
15 17.07 З 2
{3}
10 км 8/3 1000 м
[Sc Ci sp]
+10.8 +9.4 91 +9 +9 1006.1 1003.4
18 17.07 Ю 1
{2}
10 км 10/3 1000 м
[Sc Ci sp]
+13.2 +11.1 87 +13 +15 1006.4 1003.7 +10.7
21 17.07 Ю 5
{6}
10 км 10/9 500 м
[Cb cap Ac und]
+14.4 +10.8 79 +13 +13 1006.3 1003.6 +10.7
00 18.07 ЮВ 3
{6}
10 км 10/8 300 м
[Cb cap Ac und]
+15.3 +11.3 77 +15 +15 1005.9 1003.2
03 18.07 Ю 3
{4}
10 км слаб. ливневой дождь 10/8 1000 м
[Cb cap Ac und]
+14.2 +12.1 87 +13 +14 1005.4 1002.7
06 18.07 ЮВ 2
{4}
4000 м ливневой дождь 10/8 300 м
[Cb cap Ac und]
+13.1 +11.9 92 +12 +12 1004.6 1001.9 +15.6 5
09 18.07 Ю 2
{10}
4000 м ливневой дождь 10/8 300 м
[Cb cap Ac und]
+12.6 +11.3 92 +12 +12 1004.6 1001.9
12 18.07 С 2
{5}
4000 м дымка {ливн. осадки} 10/8 300 м
[Cb cap Ac und]
+12.2 +11.1 93 +11 +11 1005.3 1002.6
15 18.07 Ю 21
{4}
10 км ясно +10.2 +8.6 90 +4 +4 1006.3 1003.6
18 18.07 штиль 0
{3}
10 км 4/0
[Ci sp]
+11.4 +9.8 90 +11 +14 1007.8 1005.1 +9.3 8
21 18.07 ЮЗ 2
{2}
10 км 10/3 300 м
[St Ac und]
+14.0 +11.5 85 +13 +15 1009.1 1006.4 +9.3
00 19.07 Ю 4
{8}
10 км в посл. час ливневой дождь 10/8 800 м
[Cb cap Ac und]
+14.4 +11.9 85 +13 +13 1010.2 1007.5
03 19.07 С 6
{8}
2000 м ливневой дождь 10/10 300 м
[Cb cap]
+12.2 +10.3 88 +9 +9 1010.9 1008.2
06 19.07 С 5
{10}
10 км слаб. дождь 10/8 1000 м
[Sc As op]
+11.4 +9.3 87 +9 +9 1012.2 1009.5 +15.5 5

 

Местоположение метеостанции Эгвекинот (Чукотка, Россия): широта 66.35 долгота -179.00 высота над уровнем моря 22 м.

В архиве по умолчанию представлена погода в Эгвекиноте за последнюю неделю. Архивные данные за месяц целиком и за предыдущие месяцы, начиная с января 2011 года, Вы можете получить, выбрав интересующий диапазон дат из раскрывающегося списка и нажав кнопку "Ввод!".


*Определитесь, кто Вы:
робот инопланетянин человек

Внимание! Время в таблицах - всемирное. Для получения местного времени необходимо прибавить поправку, которая равна 12 ч.

Смотрите также архив погоды в соседних городах и на ближайших метеорологических станциях:

Погода на Мысе Ванкарем (Чукотка, Россия) (239 км)
Погода на Мысе Шмидта (Чукотка, Россия) (280 км)
Погода в Уэлене (Чукотка, Россия) (448 км)
Погода на Острове Врангеля (Чукотка, Россия) (517 км)

Пояснения к столбцам:

Ветер - указаны скорость ветра в м/с - средняя за 10 мин, порывы в срок и между сроками (в фигурных скобках) и направление, откуда дует ветер: С - северный, СВ - северо-восточный, В - восточный, ЮВ - юго-восточный, Ю - южный, ЮЗ - юго-западный, З - западный, СЗ - северо-западный.
Видимость - горизонтальная дальность видимости в метрах или километрах. При видимости от 1 до 10 км при отсутствии осадков обычно наблюдается дымка, при ухудшении видимости до 1 км и менее - туман. В сухую погоду видимость может ухудшаться дымом, пылью или мглою.
Явления - указаны атмосферные явления, наблюдавшиеся в срок или в последний час перед сроком; фигурными скобками обозначены явления, наблюдавшиеся между сроками (за 1-3 часа до срока); квадратными скобками обозначены град или гололедные отложения с указанием их диаметра в мм.
Облачность - указаны через наклонную черту общая и нижняя облачность в баллах и высота нижней границы облаков в метрах; квадратными скобками обозначены формы облаков: Ci - перистые, Cs - перисто-слоистые, Cc - перисто-кучевые, Ac - высококучевые, As - высокослоистые, Sc - слоисто-кучевые, Ns - слоисто-дождевые, Cu - кучевые, Cb - кучево-дождевые. Подробнее классификацию облаков см. в Атласе облаков (PDF).
T - Температура воздуха - температура, измеренная на высоте 2 м над землей.
Td - Температура точки росы - температура, при понижении до которой содержащийся в воздухе водяной пар достигнет насыщения.
f - Относительная влажность воздуха - влажноcть воздуха, измеренная на высоте 2 м над землей.
Te - Эффективная температура - температура, которую ощущает одетый по сезону человек в тени. Характеристика душности погоды. При расчете учитывается влияние влажности воздуха и скорости ветра на теплоощущения человека.
Tes - Эффективная температура на солнце - температура, которую ощущает человек, с поправкой на солнечный нагрев. Характеристика знойности погоды. Зависит от высоты солнца над горизонтом, облачности и скорости ветра. Ночью, в пасмурную погоду, а также при ветре 12 м/с и более поправка равна нулю.
P - Атмосферное давление - приведенное к уровню моря атмосферное давление.
Po - Атмосферное давление - измеренное на уровне метеостанции атмосферное давление.
Tmin - Минимальная температура - минимум температуры воздуха на высоте 2 м над землей.
Tmax - Максимальная температура - максимум температуры воздуха на высоте 2 м над землей.
R - Количество осадков - Количество выпавших осадков за период времени, мм. При наведении курсора мыши на число - период времени, за который выпало указанное количество осадков.
R24 - Количество осадков - Количество выпавших осадков за 24 часа, мм.
S - Снежный покров - Высота снежного покрова, см. При наведении курсора мыши на число - состояние снежного покрова и степень покрытия местности в баллах.